Time,TemperatureF,DewpointF,PressureIn,WindDirection,WindDirectionDegrees,WindSpeedMPH,WindSpeedGustMPH,Humidity,HourlyPrecipIn,Conditions,Clouds,dailyrainin,SoftwareType,DateUTC
2013-03-24 07:55:00,-3.8,-9.2,30.55,South,180,0.0,0.0,77,0.00,,---,0.00,VWS V14.01,2013-03-24 13:55:00,
2013-03-24 08:10:00,-2.7,-7.8,30.50,South,191,0.0,0.0,78,0.00,,---,0.00,VWS V14.01,2013-03-24 14:10:00,
2013-03-24 08:15:00,-1.9,-7.1,30.50,South,191,0.0,0.0,78,0.00,,---,0.00,VWS V14.01,2013-03-24 14:15:00,
2013-03-24 08:20:00,-1.0,-6.2,30.49,South,191,0.0,0.0,78,0.00,,---,0.00,VWS V14.01,2013-03-24 14:20:00,
2013-03-24 08:25:00,-0.1,-5.3,30.48,South,191,1.0,2.0,78,0.00,,---,0.00,VWS V14.01,2013-03-24 14:25:00,
2013-03-24 08:30:00,0.7,-4.8,30.47,South,191,0.0,0.0,77,0.00,,---,0.00,VWS V14.01,2013-03-24 14:30:00,
2013-03-24 08:35:00,1.4,-4.1,30.46,South,191,0.0,1.0,77,0.00,,---,0.00,VWS V14.01,2013-03-24 14:35:00,
2013-03-24 08:40:00,2.3,-3.5,30.47,South,191,0.0,1.0,76,0.00,,---,0.00,VWS V14.01,2013-03-24 14:40:00,
2013-03-24 08:45:00,2.1,-4.0,30.46,South,191,0.0,1.0,75,0.00,,---,0.00,VWS V14.01,2013-03-24 14:45:00,
2013-03-24 08:50:00,1.8,-4.6,30.47,South,191,0.0,1.0,74,0.00,,---,0.00,VWS V14.01,2013-03-24 14:50:00,
2013-03-24 08:55:00,1.9,-4.2,30.46,South,191,0.0,3.0,75,0.00,,---,0.00,VWS V14.01,2013-03-24 14:55:00,
2013-03-24 09:00:00,2.6,-3.2,30.46,South,191,0.0,4.0,76,0.00,,---,0.00,VWS V14.01,2013-03-24 15:00:00,
2013-03-24 09:05:00,3.7,-2.2,30.43,South,191,0.0,3.0,76,0.00,,---,0.00,VWS V14.01,2013-03-24 15:05:00,
2013-03-24 09:10:00,5.4,-0.2,30.43,South,191,0.0,2.0,77,0.00,,---,0.00,VWS V14.01,2013-03-24 15:10:00,
2013-03-24 09:15:00,7.1,1.1,30.41,South,191,0.0,1.0,76,0.00,,---,0.00,VWS V14.01,2013-03-24 15:15:00,
2013-03-24 09:20:00,8.1,1.8,30.39,SSW,192,0.0,4.0,75,0.00,,---,0.00,VWS V14.01,2013-03-24 15:20:00,
2013-03-24 09:25:00,9.0,2.7,30.39,South,191,0.0,0.0,75,0.00,,---,0.00,VWS V14.01,2013-03-24 15:25:00,
2013-03-24 09:30:00,9.9,3.3,30.37,SSW,192,0.0,0.0,74,0.00,,---,0.00,VWS V14.01,2013-03-24 15:30:00,
2013-03-24 09:35:00,10.1,2.9,30.37,SSW,192,0.0,1.0,72,0.00,,---,0.00,VWS V14.01,2013-03-24 15:35:00,
2013-03-24 09:40:00,10.6,3.7,30.36,South,191,0.0,0.0,73,0.00,,---,0.00,VWS V14.01,2013-03-24 15:40:00,
2013-03-24 09:45:00,10.8,3.6,30.37,SSW,192,0.0,2.0,72,0.00,,---,0.00,VWS V14.01,2013-03-24 15:45:00,
2013-03-24 09:50:00,10.8,3.9,30.36,SSW,192,2.0,4.0,73,0.00,,---,0.00,VWS V14.01,2013-03-24 15:50:00,
2013-03-24 09:55:00,11.2,4.0,30.36,SSW,192,0.0,3.0,72,0.00,,---,0.00,VWS V14.01,2013-03-24 15:55:00,
2013-03-24 10:00:00,11.5,4.5,30.36,SSW,192,0.0,4.0,73,0.00,,---,0.00,VWS V14.01,2013-03-24 16:00:00,
2013-03-24 10:05:00,11.9,4.9,30.34,SSW,192,1.0,5.0,73,0.00,,---,0.00,VWS V14.01,2013-03-24 16:05:00,
2013-03-24 10:10:00,12.4,5.4,30.35,SSW,192,2.0,5.0,73,0.00,,---,0.00,VWS V14.01,2013-03-24 16:10:00,
2013-03-24 10:15:00,12.9,5.6,30.35,SSW,192,0.0,5.0,72,0.00,,---,0.00,VWS V14.01,2013-03-24 16:15:00,
2013-03-24 10:20:00,13.6,6.0,30.33,SSW,193,2.0,5.0,71,0.00,,---,0.00,VWS V14.01,2013-03-24 16:20:00,
2013-03-24 10:25:00,14.3,6.3,30.33,SSW,193,2.0,5.0,70,0.00,,---,0.00,VWS V14.01,2013-03-24 16:25:00,
2013-03-24 10:30:00,14.8,6.5,30.33,SSW,193,0.0,2.0,69,0.00,,---,0.00,VWS V14.01,2013-03-24 16:30:00,
2013-03-24 10:35:00,15.8,7.8,30.32,SSW,193,0.0,1.0,70,0.00,,---,0.00,VWS V14.01,2013-03-24 16:35:00,
2013-03-24 10:40:00,16.5,7.5,30.32,SSW,193,0.0,1.0,67,0.00,,---,0.00,VWS V14.01,2013-03-24 16:40:00,
2013-03-24 10:45:00,16.1,6.8,30.31,SSW,193,0.0,3.0,66,0.00,,---,0.00,VWS V14.01,2013-03-24 16:45:00,
2013-03-24 10:50:00,15.7,6.7,30.31,SSW,193,0.0,1.0,67,0.00,,---,0.00,VWS V14.01,2013-03-24 16:50:00,
2013-03-24 10:55:00,15.7,7.0,30.31,SSW,193,0.0,2.0,68,0.00,,---,0.00,VWS V14.01,2013-03-24 16:55:00,
2013-03-24 11:00:00,15.9,7.5,30.31,SSW,193,0.0,0.0,69,0.00,,---,0.00,VWS V14.01,2013-03-24 17:00:00,
2013-03-24 11:05:00,16.6,8.2,30.30,SSW,193,0.0,0.0,69,0.00,,---,0.00,VWS V14.01,2013-03-24 17:05:00,
2013-03-24 11:10:00,16.9,8.2,30.31,SSW,197,1.0,5.0,68,0.00,,---,0.00,VWS V14.01,2013-03-24 17:10:00,
2013-03-24 11:15:00,16.7,7.7,30.31,SSW,197,1.0,2.0,67,0.00,,---,0.00,VWS V14.01,2013-03-24 17:15:00,
2013-03-24 11:20:00,17.0,7.9,30.30,SSW,197,0.0,1.0,67,0.00,,---,0.00,VWS V14.01,2013-03-24 17:20:00,
2013-03-24 11:25:00,18.1,9.3,30.30,SSW,197,0.0,0.0,68,0.00,,---,0.00,VWS V14.01,2013-03-24 17:25:00,
2013-03-24 11:30:00,19.3,9.5,30.28,SSW,196,0.0,2.0,65,0.00,,---,0.00,VWS V14.01,2013-03-24 17:30:00,
2013-03-24 11:35:00,19.4,8.2,30.28,SSW,196,1.0,4.0,61,0.00,,---,0.00,VWS V14.01,2013-03-24 17:35:00,
2013-03-24 11:40:00,19.1,8.9,30.28,SSW,197,0.0,2.0,64,0.00,,---,0.00,VWS V14.01,2013-03-24 17:40:00,
2013-03-24 11:45:00,19.9,9.7,30.28,SSW,196,0.0,2.0,64,0.00,,---,0.00,VWS V14.01,2013-03-24 17:45:00,
2013-03-24 11:50:00,20.9,10.6,30.26,SSW,197,0.0,4.0,64,0.00,,---,0.00,VWS V14.01,2013-03-24 17:50:00,
2013-03-24 11:55:00,21.1,9.8,30.25,SSW,196,0.0,3.0,61,0.00,,---,0.00,VWS V14.01,2013-03-24 17:55:00,
2013-03-24 12:00:00,21.8,10.4,30.26,SSW,196,0.0,2.0,61,0.00,,---,0.00,VWS V14.01,2013-03-24 18:00:00,
2013-03-24 12:05:00,22.3,9.8,30.25,SSW,196,2.0,3.0,58,0.00,,---,0.00,VWS V14.01,2013-03-24 18:05:00,
2013-03-24 12:10:00,22.5,9.6,30.27,SSW,196,0.0,1.0,57,0.00,,---,0.00,VWS V14.01,2013-03-24 18:10:00,
2013-03-24 12:15:00,22.8,9.1,30.25,SSW,196,0.0,2.0,55,0.00,,---,0.00,VWS V14.01,2013-03-24 18:15:00,
2013-03-24 12:20:00,22.6,10.1,30.25,SSW,198,5.0,5.0,58,0.00,,---,0.00,VWS V14.01,2013-03-24 18:20:00,
2013-03-24 12:25:00,22.4,9.9,30.26,SSW,198,1.0,4.0,58,0.00,,---,0.00,VWS V14.01,2013-03-24 18:25:00,
2013-03-24 12:30:00,23.3,10.7,30.24,SSW,198,0.0,1.0,58,0.00,,---,0.00,VWS V14.01,2013-03-24 18:30:00,
2013-03-24 12:35:00,24.5,9.8,30.24,SSW,198,0.0,4.0,53,0.00,,---,0.00,VWS V14.01,2013-03-24 18:35:00,
2013-03-24 12:40:00,24.9,11.0,30.22,SSE,165,2.0,5.0,55,0.02,,---,0.02,VWS V14.01,2013-03-24 18:40:00,
2013-03-24 12:45:00,24.9,10.2,30.21,SSE,149,0.0,5.0,53,0.02,,---,0.02,VWS V14.01,2013-03-24 18:45:00,
2013-03-24 12:50:00,25.1,10.4,30.22,SE,146,0.0,5.0,53,0.02,,---,0.02,VWS V14.01,2013-03-24 18:50:00,
2013-03-24 12:55:00,25.3,9.3,30.21,SE,146,0.0,4.0,50,0.03,,---,0.03,VWS V14.01,2013-03-24 18:55:00,
2013-03-24 13:00:00,25.7,10.9,30.21,SE,144,4.0,5.0,53,0.03,,---,0.03,VWS V14.01,2013-03-24 19:00:00,
2013-03-24 13:05:00,26.1,12.6,30.20,SE,144,0.0,5.0,56,0.03,,---,0.03,VWS V14.01,2013-03-24 19:05:00,
2013-03-24 13:10:00,26.5,10.8,30.25,SE,142,0.0,4.0,51,0.04,,---,0.04,VWS V14.01,2013-03-24 19:10:00,
2013-03-24 13:15:00,26.7,11.4,30.24,SE,142,0.0,3.0,52,0.04,,---,0.04,VWS V14.01,2013-03-24 19:15:00,
2013-03-24 13:20:00,26.1,9.6,30.24,SE,144,4.0,6.0,49,0.05,,---,0.05,VWS V14.01,2013-03-24 19:20:00,
2013-03-24 13:25:00,24.8,8.4,30.26,SSE,168,1.0,7.0,49,0.05,,---,0.05,VWS V14.01,2013-03-24 19:25:00,
2013-03-24 13:30:00,24.1,7.7,30.26,South,186,4.0,8.0,49,0.05,,---,0.05,VWS V14.01,2013-03-24 19:30:00,
2013-03-24 13:35:00,23.9,6.6,30.26,SSW,192,5.0,7.0,47,0.06,,---,0.06,VWS V14.01,2013-03-24 19:35:00,
2013-03-24 13:40:00,24.3,9.6,30.26,SSW,192,0.0,2.0,53,0.06,,---,0.06,VWS V14.01,2013-03-24 19:40:00,
2013-03-24 13:45:00,24.8,8.4,30.25,SSW,192,4.0,5.0,49,0.04,,---,0.06,VWS V14.01,2013-03-24 19:45:00,
2013-03-24 13:50:00,25.4,10.7,30.25,SSW,192,3.0,3.0,53,0.05,,---,0.07,VWS V14.01,2013-03-24 19:50:00,
2013-03-24 13:55:00,26.3,10.2,30.23,SSW,192,1.0,2.0,50,0.05,,---,0.07,VWS V14.01,2013-03-24 19:55:00,
2013-03-24 14:00:00,26.6,9.6,30.23,South,191,2.0,5.0,48,0.04,,---,0.07,VWS V14.01,2013-03-24 20:00:00,
2013-03-24 14:05:00,26.1,7.2,30.23,South,191,0.0,5.0,44,0.04,,---,0.07,VWS V14.01,2013-03-24 20:05:00,
2013-03-24 14:10:00,26.9,10.3,30.24,South,191,1.0,6.0,49,0.04,,---,0.07,VWS V14.01,2013-03-24 20:10:00,
2013-03-24 14:15:00,26.9,7.9,30.24,SW,218,6.0,10.0,44,0.03,,---,0.07,VWS V14.01,2013-03-24 20:15:00,
2013-03-24 14:20:00,26.8,7.3,30.24,NNW,340,11.0,15.0,43,0.03,,---,0.07,VWS V14.01,2013-03-24 20:20:00,
2013-03-24 14:25:00,26.5,6.0,30.24,NW,304,6.0,15.0,41,0.02,,---,0.07,VWS V14.01,2013-03-24 20:25:00,
2013-03-24 14:30:00,26.5,7.0,30.25,NNW,340,5.0,14.0,43,0.02,,---,0.07,VWS V14.01,2013-03-24 20:30:00,
2013-03-24 14:35:00,26.7,5.6,30.23,WNW,292,8.0,16.0,40,0.02,,---,0.07,VWS V14.01,2013-03-24 20:35:00,
2013-03-24 14:40:00,27.1,5.4,30.23,WNW,300,9.0,16.0,39,0.01,,---,0.07,VWS V14.01,2013-03-24 20:40:00,
2013-03-24 14:45:00,27.2,6.1,30.23,NW,307,12.0,16.0,40,0.01,,---,0.07,VWS V14.01,2013-03-24 20:45:00,
2013-03-24 14:50:00,27.5,4.7,30.23,WNW,283,7.0,14.0,37,0.01,,---,0.07,VWS V14.01,2013-03-24 20:50:00,
2013-03-24 14:55:00,27.5,4.1,30.23,WNW,295,3.0,12.0,36,0.00,,---,0.07,VWS V14.01,2013-03-24 20:55:00,
2013-03-24 15:01:00,28.0,5.7,30.23,WNW,291,7.0,14.0,38,0.00,,---,0.07,VWS V14.01,2013-03-24 21:01:00,
2013-03-24 15:06:00,28.3,6.0,30.23,NW,309,10.0,12.0,38,0.00,,---,0.07,VWS V14.01,2013-03-24 21:06:00,
2013-03-24 15:11:00,28.6,5.0,30.25,NW,318,9.0,20.0,36,0.00,,---,0.07,VWS V14.01,2013-03-24 21:11:00,
2013-03-24 15:16:00,28.5,3.7,30.25,NW,306,7.0,12.0,34,0.00,,---,0.07,VWS V14.01,2013-03-24 21:16:00,
2013-03-24 15:21:00,28.3,5.4,30.25,NNW,341,5.0,10.0,37,0.00,,---,0.07,VWS V14.01,2013-03-24 21:21:00,
2013-03-24 15:26:00,28.4,5.5,30.25,NW,325,0.0,13.0,37,0.00,,---,0.07,VWS V14.01,2013-03-24 21:26:00,
2013-03-24 15:31:00,28.4,6.1,30.25,NNW,344,12.0,13.0,38,0.00,,---,0.07,VWS V14.01,2013-03-24 21:31:00,
2013-03-24 15:35:00,28.8,4.6,30.24,NW,321,12.0,16.0,35,0.00,,---,0.07,VWS V14.01,2013-03-24 21:35:00,
2013-03-24 15:41:00,28.5,5.6,30.24,NNW,345,7.0,18.0,37,0.00,,---,0.07,VWS V14.01,2013-03-24 21:41:00,
2013-03-24 15:46:00,28.6,4.4,30.24,NNW,343,10.0,18.0,35,0.00,,---,0.07,VWS V14.01,2013-03-24 21:46:00,
2013-03-24 15:51:00,28.9,5.3,30.24,NNW,329,18.0,20.0,36,0.00,,---,0.07,VWS V14.01,2013-03-24 21:51:00,
2013-03-24 15:56:00,29.2,6.8,30.24,North,349,14.0,19.0,38,0.00,,---,0.07,VWS V14.01,2013-03-24 21:56:00,
2013-03-24 16:01:00,28.9,4.7,30.24,NNW,338,15.0,19.0,35,0.00,,---,0.07,VWS V14.01,2013-03-24 22:01:00,
2013-03-24 16:06:00,28.7,3.2,30.25,NNW,345,12.0,22.0,33,0.00,,---,0.07,VWS V14.01,2013-03-24 22:06:00,
2013-03-24 16:11:00,29.0,6.6,30.26,NW,326,13.0,16.0,38,0.00,,---,0.07,VWS V14.01,2013-03-24 22:11:00,
2013-03-24 16:16:00,28.3,5.4,30.26,NNW,336,0.0,21.0,37,0.00,,---,0.07,VWS V14.01,2013-03-24 22:16:00,
2013-03-24 16:21:00,28.5,6.1,30.27,NNW,342,15.0,20.0,38,0.00,,---,0.07,VWS V14.01,2013-03-24 22:21:00,
2013-03-24 16:26:00,28.5,4.3,30.26,NNE,14,13.0,20.0,35,0.00,,---,0.07,VWS V14.01,2013-03-24 22:26:00,
2013-03-24 16:31:00,28.8,5.8,30.27,North,350,18.0,19.0,37,0.00,,---,0.07,VWS V14.01,2013-03-24 22:31:00,
2013-03-24 16:36:00,28.5,5.6,30.27,North,350,19.0,22.0,37,0.00,,---,0.07,VWS V14.01,2013-03-24 22:36:00,
2013-03-24 16:41:00,28.7,6.3,30.27,NNW,334,14.0,18.0,38,0.00,,---,0.07,VWS V14.01,2013-03-24 22:41:00,
2013-03-24 16:46:00,28.8,5.2,30.27,WNW,303,10.0,21.0,36,0.00,,---,0.07,VWS V14.01,2013-03-24 22:46:00,
2013-03-24 16:51:00,28.7,5.7,30.27,NNW,342,15.0,20.0,37,0.00,,---,0.07,VWS V14.01,2013-03-24 22:51:00,
2013-03-24 16:56:00,28.8,5.8,30.27,NW,304,7.0,15.0,37,0.00,,---,0.07,VWS V14.01,2013-03-24 22:56:00,
2013-03-24 17:01:00,28.9,6.5,30.27,NW,313,7.0,18.0,38,0.00,,---,0.07,VWS V14.01,2013-03-24 23:01:00,
2013-03-24 17:06:00,28.6,3.8,30.28,NNW,341,12.0,20.0,34,0.00,,---,0.07,VWS V14.01,2013-03-24 23:06:00,
2013-03-24 17:11:00,28.8,4.0,30.30,North,350,18.0,24.0,34,0.00,,---,0.07,VWS V14.01,2013-03-24 23:11:00,
2013-03-24 17:16:00,28.0,8.4,30.30,ENE,60,8.0,21.0,43,0.00,,---,0.07,VWS V14.01,2013-03-24 23:16:00,
2013-03-24 17:21:00,26.9,9.4,30.32,NE,51,2.0,15.0,47,0.00,,---,0.07,VWS V14.01,2013-03-24 23:21:00,
2013-03-24 17:26:00,26.4,8.9,30.32,NE,49,1.0,16.0,47,0.00,,---,0.07,VWS V14.01,2013-03-24 23:26:00,
2013-03-24 17:31:00,26.1,9.6,30.33,ENE,57,8.0,20.0,49,0.00,,---,0.07,VWS V14.01,2013-03-24 23:31:00,
2013-03-24 17:36:00,25.7,10.1,30.33,ENE,74,7.0,14.0,51,0.00,,---,0.07,VWS V14.01,2013-03-24 23:36:00,
2013-03-24 17:41:00,25.8,9.7,30.34,NNE,28,12.0,13.0,50,0.00,,---,0.07,VWS V14.01,2013-03-24 23:41:00,
2013-03-24 17:46:00,25.4,11.5,30.34,East,91,11.0,15.0,55,0.00,,---,0.07,VWS V14.01,2013-03-24 23:46:00,
2013-03-24 17:51:00,24.7,11.2,30.36,ENE,69,7.0,15.0,56,0.00,,---,0.07,VWS V14.01,2013-03-24 23:51:00,
2013-03-24 17:56:00,23.9,11.3,30.37,ENE,78,11.0,18.0,58,0.00,,---,0.07,VWS V14.01,2013-03-24 23:56:00,
2013-03-24 18:01:00,23.0,11.2,30.39,East,80,9.0,18.0,60,0.00,,---,0.07,VWS V14.01,2013-03-25 00:01:00,
2013-03-24 18:06:00,22.8,11.8,30.40,ENE,71,7.0,13.0,62,0.00,,---,0.07,VWS V14.01,2013-03-25 00:06:00,
2013-03-24 18:11:00,22.4,11.0,30.38,East,84,6.0,12.0,61,0.00,,---,0.07,VWS V14.01,2013-03-25 00:11:00,
2013-03-24 18:16:00,22.1,11.4,30.40,ENE,73,9.0,13.0,63,0.00,,---,0.07,VWS V14.01,2013-03-25 00:16:00,
2013-03-24 18:21:00,21.8,11.2,30.41,ENE,71,9.0,18.0,63,0.00,,---,0.07,VWS V14.01,2013-03-25 00:21:00,
2013-03-24 18:26:00,21.4,11.1,30.41,East,82,8.0,15.0,64,0.00,,---,0.07,VWS V14.01,2013-03-25 00:26:00,
2013-03-24 18:32:00,21.2,11.3,30.42,East,84,7.0,16.0,65,0.00,,---,0.07,VWS V14.01,2013-03-25 00:32:00,
2013-03-24 18:36:00,21.1,11.2,30.43,ENE,71,9.0,19.0,65,0.00,,---,0.07,VWS V14.01,2013-03-25 00:36:00,
2013-03-24 18:42:00,20.8,11.2,30.43,ENE,63,6.0,13.0,66,0.00,,---,0.07,VWS V14.01,2013-03-25 00:42:00,
2013-03-24 18:47:00,20.7,11.1,30.44,ENE,71,6.0,6.0,66,0.00,,---,0.07,VWS V14.01,2013-03-25 00:47:00,
2013-03-24 18:52:00,20.4,10.9,30.44,NE,45,2.0,5.0,66,0.00,,---,0.07,VWS V14.01,2013-03-25 00:52:00,
2013-03-24 18:57:00,20.4,10.9,30.47,NE,51,0.0,0.0,66,0.00,,---,0.07,VWS V14.01,2013-03-25 00:57:00,
2013-03-24 19:02:00,20.3,11.1,30.47,ENE,64,4.0,7.0,67,0.00,,---,0.07,VWS V14.01,2013-03-25 01:02:00,
2013-03-24 19:07:00,20.1,11.2,30.48,NE,37,1.0,2.0,68,0.00,,---,0.07,VWS V14.01,2013-03-25 01:07:00,
2013-03-24 19:12:00,20.0,11.5,30.44,NE,46,5.0,5.0,69,0.00,,---,0.07,VWS V14.01,2013-03-25 01:12:00,
2013-03-24 19:17:00,19.7,11.5,30.45,NE,53,4.0,8.0,70,0.00,,---,0.07,VWS V14.01,2013-03-25 01:17:00,
2013-03-24 19:22:00,19.7,11.5,30.45,ENE,61,0.0,0.0,70,0.00,,---,0.07,VWS V14.01,2013-03-25 01:22:00,
2013-03-24 19:27:00,19.7,11.5,30.45,ENE,60,3.0,3.0,70,0.00,,---,0.07,VWS V14.01,2013-03-25 01:27:00,
2013-03-24 19:32:00,19.5,11.6,30.45,NE,52,4.0,6.0,71,0.00,,---,0.07,VWS V14.01,2013-03-25 01:32:00,
2013-03-24 19:37:00,19.3,11.8,30.45,NE,55,2.0,7.0,72,0.00,,---,0.07,VWS V14.01,2013-03-25 01:37:00,
2013-03-24 19:42:00,19.1,11.9,30.45,NE,54,5.0,5.0,73,0.00,,---,0.07,VWS V14.01,2013-03-25 01:42:00,
2013-03-24 19:47:00,19.0,11.8,30.46,NE,53,0.0,0.0,73,0.00,,---,0.07,VWS V14.01,2013-03-25 01:47:00,
2013-03-24 19:52:00,18.8,11.9,30.46,NE,54,2.0,2.0,74,0.00,,---,0.07,VWS V14.01,2013-03-25 01:52:00,
2013-03-24 19:57:00,18.7,12.1,30.47,NE,53,0.0,0.0,75,0.00,,---,0.07,VWS V14.01,2013-03-25 01:57:00,
2013-03-24 20:02:00,18.6,12.0,30.47,NE,54,0.0,0.0,75,0.00,,---,0.07,VWS V14.01,2013-03-25 02:02:00,
2013-03-24 20:07:00,18.5,12.2,30.47,NE,53,0.0,0.0,76,0.00,,---,0.07,VWS V14.01,2013-03-25 02:07:00,
2013-03-24 20:12:00,18.4,12.4,30.41,NE,53,0.0,0.0,77,0.00,,---,0.07,VWS V14.01,2013-03-25 02:12:00,
2013-03-24 20:17:00,18.4,12.4,30.41,NE,53,0.0,2.0,77,0.00,,---,0.07,VWS V14.01,2013-03-25 02:17:00,
2013-03-24 20:22:00,18.4,12.7,30.41,NE,54,0.0,0.0,78,0.00,,---,0.07,VWS V14.01,2013-03-25 02:22:00,
2013-03-24 20:27:00,18.3,12.6,30.42,NE,54,1.0,2.0,78,0.00,,---,0.07,VWS V14.01,2013-03-25 02:27:00,
2013-03-24 20:32:00,18.3,12.9,30.42,NE,54,0.0,0.0,79,0.00,,---,0.07,VWS V14.01,2013-03-25 02:32:00,
2013-03-24 20:37:00,18.3,12.9,30.42,NE,54,0.0,0.0,79,0.00,,---,0.07,VWS V14.01,2013-03-25 02:37:00,
2013-03-24 20:42:00,18.3,12.9,30.42,NE,53,0.0,0.0,79,0.00,,---,0.07,VWS V14.01,2013-03-25 02:42:00,
2013-03-24 20:47:00,18.3,12.9,30.42,NE,54,0.0,0.0,79,0.00,,---,0.07,VWS V14.01,2013-03-25 02:47:00,
2013-03-24 20:52:00,18.3,13.2,30.42,NE,53,0.0,0.0,80,0.00,,---,0.07,VWS V14.01,2013-03-25 02:52:00,
2013-03-24 20:57:00,18.4,13.3,30.42,NE,54,0.0,0.0,80,0.00,,---,0.07,VWS V14.01,2013-03-25 02:57:00,
2013-03-24 21:02:00,18.4,13.3,30.42,NE,53,0.0,0.0,80,0.00,,---,0.07,VWS V14.01,2013-03-25 03:02:00,
2013-03-24 21:07:00,18.3,12.9,30.42,NE,53,0.0,1.0,79,0.00,,---,0.07,VWS V14.01,2013-03-25 03:07:00,
2013-03-24 21:12:00,18.2,12.8,30.35,NE,54,0.0,1.0,79,0.00,,---,0.07,VWS V14.01,2013-03-25 03:12:00,
2013-03-24 21:17:00,18.1,12.7,30.35,NE,55,2.0,4.0,79,0.00,,---,0.07,VWS V14.01,2013-03-25 03:17:00,
2013-03-24 21:22:00,17.8,12.7,30.36,NE,55,0.0,2.0,80,0.00,,---,0.07,VWS V14.01,2013-03-25 03:22:00,